STARLINK-37172

Last updated on Sun Apr 12 2026 00:02:09 GMT+0000 (Coordinated Universal Time)

1 68395U 26063R 26101.48729395 .00192184 00000+0 97842-3 0 9992 2 68395 97.2825 242.8707 0000937 73.2406 286.8965 15.80899132 2807
UTC large
Height (km)
Speed (km/s)
/
Latitude / Longitude
Inclination (degrees)
Orbital Period (minutes)
Azimuth
Elevation
Range (km)
Doppler Factor

Next 0 passes for location: London (51.5072 / 0.1276)

Sorry there are no passes over London.
STARLINK-37172